Change the Weather History Date:

Friday, January 4, 2013

  Actual Average (KRUG) Record (KRUG)
Temperature  
Mean Temperature 14 °F -  
Max Temperature 26 °F 12 °F 39 °F (2012)
Min Temperature 1 °F -5 °F -36 °F (1968)
Degree Days  
Heating Degree Days 52    
Moisture  
Dew Point 12 °F    
Average Humidity 86    
Maximum Humidity 100    
Minimum Humidity 64    
Precipitation  
Precipitation 0.00 in - - ()
Sea Level Pressure  
Sea Level Pressure 29.99 in    
Wind  
Wind Speed 10 mph (NNW)    
Max Wind Speed 18 mph    
Max Gust Speed 24 mph    
Visibility 9 miles    
Events Fog , Snow    
Averages and records for this station are not official NWS values.
T = Trace of Precipitation, MM = Missing Value Source: NWS Daily Summary

Daily Weather History Graph

Daily Weather History Graph

Search for Another Location

Airport or City:

Trip Planner

Search our weather history database for the weather conditions in past years. The results will help you decide how hot, cold, wet, or windy it might be!

Date:

Astronomy

Jan. 04, 2013 Rise Set
Actual Time 8:31 AM CST 4:55 PM CST
Civil Twilight 7:54 AM CST 5:32 PM CST
Nautical Twilight 7:14 AM CST 6:12 PM CST
Astronomical Twilight 6:36 AM CST 6:51 PM CST
Moon 12:09 AM CST (1/4) 11:35 AM CST (1/4)
Length of Visible Light 9h 37m
Length of Day
8h 24m
Waning Gibbous, 55% of the Moon is Illuminated
Jan 4
Waning Gibbous
Jan 4
Last Quarter
Jan 11
New
Jan 18
First Quarter
Jan 26
Full

Hourly Weather History & Observations

Time (CST) Temp. Windchill Dew Point Humidity Pressure Visibility Wind Dir Wind Speed Gust Speed Precip Events Conditions
12:15 AM 26.6 °F 15.7 °F 15.8 °F 64% 29.92 in 10.0 mi NW 12.7 mph - N/A   Clear
12:35 AM 26.6 °F 14.7 °F 15.8 °F 64% 29.91 in 10.0 mi NW 15.0 mph - N/A   Clear
12:55 AM 26.6 °F 13.8 °F 17.6 °F 69% 29.92 in 10.0 mi NW 17.3 mph - N/A   Clear
1:15 AM 26.6 °F 14.3 °F 17.6 °F 69% 29.92 in 10.0 mi NW 16.1 mph 23.0 mph N/A   Clear
1:35 AM 26.6 °F 13.4 °F 17.6 °F 69% 29.92 in 10.0 mi NW 18.4 mph 24.2 mph N/A   Clear
1:55 AM 24.8 °F 12.9 °F 17.6 °F 74% 29.92 in 10.0 mi NW 13.8 mph - N/A   Clear
2:15 AM 24.8 °F 12.9 °F 17.6 °F 74% 29.92 in 10.0 mi NW 13.8 mph - N/A   Clear
2:35 AM 23.0 °F 10.6 °F 15.8 °F 74% 29.92 in 10.0 mi WNW 13.8 mph - N/A   Clear
2:55 AM 23.0 °F 11.1 °F 15.8 °F 74% 29.93 in 10.0 mi NW 12.7 mph - N/A   Clear
3:15 AM 21.2 °F 8.9 °F 15.8 °F 80% 29.94 in 10.0 mi WNW 12.7 mph - N/A   Clear
5:55 AM 21.2 °F 10.1 °F 15.8 °F 80% 29.97 in 10.0 mi WNW 10.4 mph - N/A   Clear
6:15 AM 21.2 °F 8.3 °F 15.8 °F 80% 29.97 in 10.0 mi WNW 13.8 mph - N/A   Clear
6:35 AM 21.2 °F 8.9 °F 15.8 °F 80% 29.98 in 10.0 mi WNW 12.7 mph - N/A   Clear
7:15 AM 21.2 °F 10.9 °F 15.8 °F 80% 29.99 in 10.0 mi NW 9.2 mph - N/A   Clear
7:35 AM 17.6 °F 6.4 °F 14.0 °F 86% 29.99 in 10.0 mi NNW 9.2 mph - N/A   Clear
7:55 AM 17.6 °F 6.4 °F 14.0 °F 86% 29.99 in 10.0 mi NW 9.2 mph - N/A   Clear
8:15 AM 17.6 °F 6.4 °F 15.8 °F 93% 30.00 in 10.0 mi NW 9.2 mph - N/A   Clear
8:35 AM 14.0 °F 2.0 °F 12.2 °F 93% 30.00 in 10.0 mi NW 9.2 mph - N/A   Clear
8:55 AM 10.4 °F 0.8 °F 6.8 °F 85% 30.00 in 10.0 mi NW 5.8 mph - N/A   Clear
9:15 AM 15.8 °F 7.2 °F 14.0 °F 93% 30.00 in 10.0 mi NNW 5.8 mph - N/A   Clear
9:35 AM 15.8 °F 5.1 °F 14.0 °F 93% 30.01 in 10.0 mi NW 8.1 mph - N/A   Clear
9:55 AM 17.6 °F 6.4 °F 14.0 °F 86% 30.02 in 10.0 mi NW 9.2 mph - N/A   Clear
10:15 AM 19.4 °F 9.5 °F 14.0 °F 80% 30.03 in 10.0 mi NNW 8.1 mph - N/A   Clear
10:35 AM 19.4 °F 7.9 °F 14.0 °F 80% 30.02 in 10.0 mi NNW 10.4 mph - N/A   Clear
10:55 AM 23.0 °F 12.4 °F 15.8 °F 74% 30.04 in 10.0 mi NW 10.4 mph - N/A   Clear
11:15 AM 24.8 °F 14.0 °F 15.8 °F 69% 30.05 in 10.0 mi NNW 11.5 mph - N/A   Clear
11:35 AM 24.8 °F 14.6 °F 17.6 °F 74% 30.04 in 10.0 mi North 10.4 mph - N/A   Clear
11:55 AM 24.8 °F 14.6 °F 17.6 °F 74% 30.04 in 10.0 mi North 10.4 mph - N/A   Clear
12:15 PM 24.8 °F 15.3 °F 17.6 °F 74% 30.04 in 10.0 mi North 9.2 mph - N/A   Clear
12:35 PM 23.0 °F 11.7 °F 17.6 °F 80% 30.04 in 10.0 mi North 11.5 mph - N/A   Clear
12:55 PM 23.0 °F 11.7 °F 17.6 °F 80% 30.04 in 10.0 mi North 11.5 mph - N/A   Clear
1:15 PM 23.0 °F 13.9 °F 17.6 °F 80% 30.04 in 10.0 mi North 8.1 mph - N/A   Clear
1:35 PM 21.2 °F 10.9 °F 17.6 °F 86% 30.03 in 10.0 mi North 9.2 mph - N/A   Clear
1:55 PM 21.2 °F 11.7 °F 17.6 °F 86% 30.02 in 10.0 mi North 8.1 mph - N/A   Clear
2:15 PM 19.4 °F 10.4 °F 15.8 °F 86% 30.01 in 10.0 mi NNE 6.9 mph - N/A   Clear
2:35 PM 19.4 °F 12.8 °F 17.6 °F 93% 30.00 in 10.0 mi NNE 4.6 mph - N/A   Clear
2:55 PM 19.4 °F 12.8 °F 17.6 °F 93% 30.01 in 10.0 mi NNE 4.6 mph - N/A   Clear
3:15 PM 19.4 °F 14.3 °F 15.8 °F 86% 30.01 in 10.0 mi NNE 3.5 mph - N/A   Clear
3:35 PM 17.6 °F 12.3 °F 15.8 °F 93% 30.02 in 10.0 mi NNE 3.5 mph - N/A   Clear
3:55 PM 17.6 °F 12.3 °F 14.0 °F 86% 30.03 in 10.0 mi North 3.5 mph - N/A   Clear
4:15 PM 15.8 °F 8.6 °F 14.0 °F 93% 30.04 in 10.0 mi North 4.6 mph - N/A   Clear
4:35 PM 17.6 °F - 14.0 °F 86% 30.04 in 10.0 mi Calm Calm - N/A   Clear
4:55 PM 15.8 °F - 14.0 °F 93% 30.04 in 10.0 mi Calm Calm - N/A   Clear
5:15 PM 10.4 °F - 8.6 °F 92% 30.04 in 10.0 mi Calm Calm - N/A   Clear
5:35 PM 10.4 °F 2.2 °F 10.4 °F 100% 30.02 in 10.0 mi ESE 4.6 mph - N/A   Clear
5:55 PM 5.0 °F - 5.0 °F 100% 30.02 in 10.0 mi Calm Calm - N/A   Clear
6:15 PM 6.8 °F -0.1 °F 6.8 °F 100% 30.01 in 10.0 mi South 3.5 mph - N/A   Clear
6:35 PM 6.8 °F -2.0 °F 5.0 °F 92% 30.01 in 10.0 mi SE 4.6 mph - N/A   Clear
6:55 PM 8.6 °F -1.3 °F 8.6 °F 100% 30.00 in 10.0 mi SSE 5.8 mph - N/A   Clear
7:15 PM 8.6 °F - 8.6 °F 100% 30.01 in 10.0 mi Calm Calm - N/A   Clear
7:35 PM 6.8 °F -2.0 °F 6.8 °F 100% 30.00 in 10.0 mi South 4.6 mph - N/A   Clear
7:55 PM 10.4 °F 4.0 °F 10.4 °F 100% 30.00 in 10.0 mi ESE 3.5 mph - N/A   Clear
8:15 PM 6.8 °F - 5.0 °F 92% 30.01 in 10.0 mi Calm Calm - N/A   Clear
8:35 PM 8.6 °F 2.0 °F 8.6 °F 100% 30.00 in 10.0 mi SSE 3.5 mph - N/A   Clear
8:55 PM 1.4 °F -6.2 °F -0.4 °F 92% 29.99 in 10.0 mi NE 3.5 mph - N/A   Clear
9:15 PM 3.2 °F -4.2 °F 1.4 °F 92% 29.98 in 9.0 mi SE 3.5 mph - N/A   Clear
9:35 PM 1.4 °F -6.2 °F -0.4 °F 92% 29.97 in 8.0 mi ESE 3.5 mph - N/A   Clear
9:55 PM 1.4 °F -6.2 °F -0.4 °F 92% 29.96 in 0.8 mi South 3.5 mph - N/A   Mist
10:15 PM 6.8 °F -0.1 °F 5.0 °F 92% 29.96 in 3.0 mi SSE 3.5 mph - N/A   Clear
10:35 PM 5.0 °F -2.1 °F 5.0 °F 100% 29.96 in 3.0 mi ESE 3.5 mph - N/A Snow Light Snow
10:55 PM 5.0 °F - 3.2 °F 92% 29.95 in 1.0 mi Calm Calm - N/A   Mostly Cloudy
11:15 PM 1.4 °F - -0.4 °F 92% 29.96 in 0.2 mi Calm Calm - N/A Fog Light Freezing Fog
11:35 PM 1.4 °F - -0.4 °F 92% 29.96 in 0.5 mi Calm Calm - N/A Fog Light Freezing Fog
11:55 PM 1.4 °F -8.3 °F -0.4 °F 92% 29.96 in 0.5 mi NNE 4.6 mph - N/A Fog Light Freezing Fog